星链-3532 (STARLINK-3532 )

导读

STARLINK-3532是美国SpaceX公司星链(Starlink)卫星互联网星座中的一颗卫星,于2022年2月21日发射入轨。作为星链低轨星座的组成部分,它运行在近地轨道,服务全球高速低延迟互联网覆盖,尤其为偏远地区、海洋航空等传统网络盲区提供宽带接入,助力缩小数字鸿沟,同时也参与到应急通信等领域应用。星链项目计划部署数万颗卫星,该星是星座规模化部署中的一环,推动全球卫星互联网组网进程。

基本信息
目录编号:
51727
目录名称:
STARLINK-3532
国际标识:
2022-016P
轨道中心:
EARTH
卫星名称:
星链-3532
卫星全名:
星链-3532 (STARLINK-3532 )
卫星状态:
在轨 (已飞行1577 天)
发射日期:
2022-02-21 UTC
国别 :
美国 (US)
星等 :
--
轨道信息
数据来源 国际轨道数据 AOE轨道数据
星历时间 2026-06-17T19:13:23+0800
6小时前
查看轨道信息
2026-06-16T10:00:00+0800
1天前
查看轨道信息
半长轴 6917.893km 6917.894km
偏心率 0.0001197 0.0001558
轨道倾角 53.160° 53.154°
近地点辐角 86.659° 84.400°
升交点赤经 241.101° 247.323°
平近点角 273.453° 312.335°
近地点 538.927km 538.679km
远地点 540.585km 540.835km
周期 95.438分钟 95.438分钟
每日圈数 15.088362 15.088358
详细信息
固有亮度:
5
最大亮度:
2.5
卫星平台:
Starlink v1.5
覆盖范围:
全球
运营商:
太空探索技术公司
运营商所在国:
美国
制造商(研发单位):
太空探索技术公司
制造商所在国:
美国
使用方式:
暂无
卫星简介
星链(Starlink)计划是由太空探索技术公司(SpaceX)提出的一个巨型低轨卫星互联网星座项目,计划在2019年至2024年间在太空搭建由约1.2万颗卫星组成的“星链”网络,其中1584颗将部署在地球上空550千米处的近地轨道,并从2020年开始工作。该卫星仍在工作。
2D轨道图
3D轨道图
轨道高度分析图
轨道倾角分析图
轨道综合分析图
查看轨道综合分析图